Regional Weather Roundup
Issued by NWS Cleveland, OH

Home | Current Version | Previous Version | Text Only | Print | Product List | Glossary On
Versions: 1 2 3 4 5 6 7 8 9 10 11 12 13 14 15 16 17 18 19 20 21 22 23 24 25 26 27 28 29 30 31 32 33 34 35 36 37 38 39 40 41 42 43 44 45 46 47 48 49 50
000
ASUS41 KCLE 260810
RWRCLE
OHIO REGIONAL WEATHER ROUNDUP
NATIONAL WEATHER SERVICE WILMINGTON, OH
300 AM EST WED NOV 26 2014

NOTE: "FAIR" INDICATES FEW OR NO CLOUDS BELOW 12,000 FEET WITH NO
SIGNIFICANT WEATHER AND/OR OBSTRUCTIONS TO VISIBILITY.

OHZ001>008-015>018-024>027-034-035-043-044-260900-
   NORTHWEST OHIO

CITY           SKY/WX    TMP DP  RH WIND       PRES   REMARKS
DEFIANCE       NOT AVBL
FINDLAY        CLOUDY    29  20  69 NE3       30.17R
TOLEDO EXPRESS CLOUDY    27  20  75 CALM      30.19R
TOLEDO METCALF CLOUDY    29  20  69 E6        30.21R WCI  23
LIMA           CLOUDY    28  20  71 VRB3      30.17R
$$

OHZ009>014-019>023-028>033-038-089-260900-
   NORTHEAST OHIO

CITY           SKY/WX    TMP DP  RH WIND       PRES   REMARKS
CLE-HOPKINS    CLOUDY    31  24  75 S3        30.22R
CLE-LAKEFRONT  CLOUDY    34  24  67 CALM      30.20R
CUY CO. ARPT   NOT AVBL
LORAIN-ELYRIA  CLOUDY    30  24  78 S3        30.20R
ASHTABULA      CLOUDY    32  26  78 CALM      30.20R
AKRON-CANTON   MOCLDY    30  25  81 NE3       30.17R
WOOSTER        MOCLDY    28  24  85 CALM      30.18R
MANSFIELD      CLOUDY    28  22  78 NE5       30.16R WCI  23
YOUNGSTOWN     CLOUDY    31  24  75 NE3       30.17R
$$

OHZ042-051>053-060>062-070>072-077>081-260900-
  SOUTHWEST OHIO

CITY           SKY/WX    TMP DP  RH WIND       PRES   REMARKS
CINC-COVINGTON PTCLDY    28  23  81 N5        30.12F WCI  23
CINC-LUNKEN    CLEAR     27  25  92 NE3       30.17F
HAMILTON       PTCLDY    25  23  92 NE5       30.16F WCI  19
DAYTON         CLOUDY    29  25  85 NE7       30.15F WCI  22
WRIGHT-PAT AFB CLOUDY    28  25  88 NE6       30.16F WCI  22
DAYTON GENERAL CLOUDY    27  24  89 NE6       30.14F WCI  20
WILMINGTON     PTCLDY    26  23  88 NE6       30.14F WCI  19
$$

OHZ036-037-039>041-045>050-054>059-063>069-073>076-082>088-260900-
  CENTRAL AND SOUTHEAST OHIO

CITY           SKY/WX    TMP DP  RH WIND       PRES   REMARKS
COLUMBUS       CLOUDY    28  23  81 N3        30.16F
OSU AIRPORT    MOCLDY    25  22  88 N5        30.16S WCI  19
BOLTON FIELD   NOT AVBL
RICKENBACK AFB CLOUDY    29  25  84 N6        30.15F WCI  23
NEWARK         CLOUDY    30  25  81 CALM      30.16F
MARION         CLOUDY    29  22  75 E6        30.18R WCI  23
LANCASTER      CLOUDY    29  26  89 N5        30.15F WCI  24
ZANESVILLE     CLOUDY    29  25  85 CALM      30.15F
NEW PHILLY     CLOUDY    30  26  85 CALM      30.19R
$$


USA.gov is the U.S. government's official web portal to all federal, state and local government web resources and services.